Temperature
20 17 17 17 18 19 20 20 20 21 23 23 22 23 24 25 25 24 23 23 22 22 23 23 23 23 23 23 22 22 21 21 21 20 20 19 19 19 18 18 18 17 17 17
17 17 18 19 20 21 20 19 20 21 22 24 22 23 23 24 23 23 22 21 21 21 21 22 22 23 23 22 22 22 21 21 21 20 20 19 19 18 18 17 17 17 17 16
17 18 20 20 20 20 20 20 20 21 22 22 22 22 22 22 21 21 20 20 20 20 20 21 21 22 22 22 22 22 21 21 20 20 20 19 18 18 17 17 16 16 16 16
17 19 20 20 20 21 20 21 22 22 21 20 22 20 21 20 19 18 17 17 17 18 18 19 20 20 21 21 21 21 21 21 20 19 19 19 18 17 17 16 16 15 15 15
18 19 19 20 21 21 21 22 22 23 22 20 20 20 20 19 18 17 16 16 16 16 17 17 18 19 19 20 20 20 20 20 19 19 19 18 18 17 16 15 15 15 14 14
18 20 20 21 22 22 23 22 21 19 18 19 21 21 20 18 18 17 16 15 15 15 15 16 16 17 18 18 19 19 19 19 18 18 18 17 17 16 15 15 14 14 13 13
19 20 21 22 22 22 22 19 18 18 17 18 20 20 18 17 17 16 15 14 14 14 14 15 15 16 16 17 17 17 18 17 17 17 16 16 16 15 14 14 13 13 12 12
18 18 21 22 21 21 21 19 18 18 18 19 20 18 17 16 15 14 13 13 13 13 13 14 14 14 15 15 16 16 16 16 16 15 15 15 14 14 13 13 12 12 12 11
18 19 21 22 23 22 22 20 18 18 19 19 19 17 16 16 15 14 13 12 12 12 12 13 13 13 14 14 14 15 15 14 14 14 14 13 13 13 12 12 11 11 10 10
19 19 20 22 22 21 21 20 17 17 18 18 19 18 16 16 14 13 12 12 12 12 12 12 12 12 12 13 13 13 13 13 13 13 12 12 12 11 11 10 10 9 9 8
18 18 19 20 19 20 20 19 18 16 17 18 18 17 17 15 14 13 12 11 11 11 11 11 11 11 11 11 12 12 12 12 11 11 11 10 10 10 9 9 8 8 8 7
17 16 17 18 18 19 18 18 16 16 17 17 16 15 15 14 13 12 11 11 10 10 10 10 10 10 10 10 10 10 10 10 10 10 10 9 9 8 8 8 7 7 7 7
17 15 15 16 16 17 17 18 17 15 15 15 15 15 14 13 12 11 10 10 10 10 10 10 10 10 10 9 9 9 9 9 9 9 8 8 8 7 7 7 7 6 6 6
16 14 15 15 16 16 16 17 16 15 14 15 15 15 13 13 12 11 10 10 9 9 9 9 9 9 9 8 8 8 8 8 8 8 7 7 7 7 6 6 6 6 5 5
15 14 15 16 17 16 16 16 16 15 15 14 14 14 13 12 11 10 9 9 9 9 9 8 8 8 8 8 8 8 7 7 7 7 7 6 6 6 6 5 5 5 5 4
13 14 15 15 16 16 15 15 15 15 14 14 14 13 12 11 10 10 9 9 9 8 8 8 8 8 7 7 7 7 7 7 6 6 6 6 5 5 5 5 4 4 4 4
14 14 14 14 15 15 13 13 14 14 13 13 13 12 11 11 10 9 9 9 8 8 8 8 7 7 7 7 7 7 6 6 6 6 5 5 5 5 4 4 4 4 3 3
14 13 12 13 14 13 13 14 14 13 12 12 11 11 10 9 9 9 9 8 8 8 7 7 7 7 7 7 6 6 6 6 5 5 5 5 4 4 4 4 4 3 3 3
14 14 12 12 13 13 14 14 14 12 11 11 11 10 9 8 8 8 8 8 8 7 7 7 7 6 6 6 6 6 5 5 5 5 5 4 4 4 4 4 3 3 3 3
14 12 12 12 12 12 13 14 14 13 11 11 10 9 9 9 8 7 7 7 7 7 7 6 6 6 6 6 6 5 5 5 5 4 4 4 4 4 4 3 3 3 3 3
13 12 12 11 11 12 13 14 14 12 10 10 10 10 9 9 8 7 7 7 7 6 6 6 6 6 6 5 5 5 5 5 4 4 4 4 4 4 3 3 3 3 3 3
12 12 11 11 10 11 12 12 11 10 10 10 10 10 9 8 7 7 7 6 6 6 6 6 6 5 5 5 5 5 5 4 4 4 4 4 4 4 3 3 3 3 3 3
12 11 10 10 10 11 12 12 12 12 11 10 10 9 8 7 7 7 6 6 6 6 6 5 5 5 5 5 5 5 4 4 4 4 4 4 4 4 4 3 3 3 3 3
14 12 10 10 10 11 12 12 12 12 11 11 10 9 8 7 7 6 6 6 6 6 6 5 5 5 5 5 5 5 4 4 4 4 4 4 4 4 4 3 3 3 3 3
14 12 10 10 10 11 11 11 11 11 11 10 9 9 8 7 7 6 6 6 6 6 5 5 5 5 5 5 5 5 4 4 4 4 4 4 4 4 4 4 3 3 3 2
12 11 10 9 11 10 11 11 11 11 10 9 9 8 7 7 7 6 6 6 6 6 5 5 5 5 5 5 5 5 4 4 4 4 4 4 4 4 4 4 3 3 3 2
Wind_Speed
3 3 5 8 7 7 6 6 10 11 10 6 12 17 15 8 5 6 8 14 16 14 13 11 10 10 9 8 8 8 10 11 11 9 8 7 6 6 6 6 8 9 10 10
2 6 10 8 7 7 8 9 12 12 10 8 11 15 10 3 5 6 10 13 14 12 10 10 8 8 8 9 11 10 10 10 10 8 7 5 6 6 6 6 9 10 10 10
8 8 9 9 9 9 10 9 11 11 11 8 3 6 4 4 8 10 9 9 10 12 13 11 10 8 8 8 8 9 9 9 9 10 9 9 7 6 4 6 6 8 10 11
8 10 8 10 11 10 11 11 10 8 4 6 2 2 3 5 9 11 12 11 9 7 7 7 8 7 6 5 5 6 7 8 8 10 12 13 8 7 5 6 6 8 11 11
8 7 9 11 14 10 10 9 6 4 2 3 4 2 4 3 7 9 11 12 11 10 9 9 8 7 5 5 5 5 6 7 8 8 10 10 9 8 8 8 10 9 8 10
11 8 8 12 12 10 8 3 3 4 5 2 4 2 3 3 4 9 11 12 12 11 11 11 11 11 10 9 9 8 9 9 9 9 9 11 13 12 12 10 9 8 7 7
8 9 8 7 6 5 2 4 4 5 4 5 5 3 2 8 11 13 14 13 12 12 11 12 13 13 12 13 12 11 12 12 11 12 11 11 12 12 12 10 9 8 7 6
5 7 6 5 8 6 4 9 7 4 3 4 3 3 5 12 15 16 15 13 12 12 11 12 12 12 13 14 14 14 15 14 13 14 13 13 12 10 9 10 9 8 7 7
3 6 6 4 5 8 4 4 9 6 2 1 1 6 7 11 13 14 14 13 12 11 12 12 13 13 14 15 15 15 15 16 15 15 15 14 13 12 12 11 10 8 7 6
2 4 6 4 2 1 6 5 6 5 3 3 2 4 6 11 12 13 13 12 11 11 12 12 13 13 14 14 15 16 16 16 15 14 13 13 13 12 11 10 10 9 8 7
3 2 6 5 4 1 4 4 4 4 5 4 2 2 2 11 14 14 13 12 11 11 11 12 12 12 13 14 15 15 16 16 15 14 14 14 12 12 11 10 10 9 8 7
4 4 2 2 3 6 7 4 3 3 2 3 3 2 8 14 14 14 14 12 11 11 11 12 12 13 13 14 14 14 14 14 13 13 13 13 12 11 11 10 9 8 9 8
4 5 4 7 8 9 7 5 3 3 3 2 3 4 8 13 13 12 13 12 11 12 12 12 11 12 13 13 13 13 13 13 12 13 13 12 11 11 10 9 9 8 8 8
4 5 5 3 1 2 5 8 8 6 4 2 3 7 9 11 12 11 12 12 11 11 11 12 12 11 12 12 12 13 12 11 12 12 12 11 10 9 9 9 9 9 9 9
5 5 3 3 4 7 10 11 10 8 4 4 6 8 8 9 11 11 11 11 12 11 11 12 12 12 12 12 11 11 11 10 11 11 11 10 9 9 9 9 8 8 8 9
5 4 3 4 9 12 13 13 10 9 7 10 12 8 7 9 9 9 9 11 11 11 11 12 12 11 11 10 10 10 10 9 9 10 9 8 8 8 7 7 7 7 7 7
3 4 3 2 4 7 9 8 6 6 5 4 6 5 9 9 8 8 9 10 11 11 11 11 10 9 8 8 8 8 8 8 8 8 8 7 7 6 6 6 6 6 5 4
4 3 3 3 5 6 1 1 7 10 9 10 11 10 9 11 10 8 7 9 11 11 10 9 8 8 7 7 7 7 7 7 7 7 6 6 7 6 6 5 5 3 2 2
4 5 4 4 4 4 1 0 2 5 5 6 11 12 12 13 11 8 7 8 9 9 9 8 7 7 7 7 6 7 7 6 6 6 6 5 6 6 5 4 2 1 1 1
8 7 5 5 5 3 2 4 4 9 4 2 8 12 12 7 5 4 6 9 10 9 8 7 7 7 7 6 6 7 6 6 6 6 5 5 5 5 4 3 1 0 0 1
6 6 6 5 4 1 4 5 2 3 5 4 6 8 7 3 5 9 10 9 9 9 8 7 7 6 5 5 6 7 6 5 4 5 4 4 4 3 3 1 0 1 2 2
4 4 3 3 3 3 6 4 4 5 5 7 7 7 10 12 13 11 10 9 9 8 7 7 6 6 4 5 6 6 4 3 4 4 3 2 2 2 2 1 1 2 3 3
3 5 5 4 4 4 2 6 6 7 8 6 7 10 14 12 11 10 9 8 8 7 6 5 6 6 4 3 5 5 2 3 3 3 2 1 1 0 1 1 1 2 3 3
1 5 6 5 4 4 6 7 6 8 8 9 11 12 12 12 11 10 9 7 7 6 6 5 6 5 3 2 3 3 2 3 3 2 1 1 1 1 1 1 1 3 3 3
2 4 5 5 5 6 4 5 7 9 11 12 11 10 10 12 11 9 8 7 6 5 4 5 6 5 4 3 2 2 3 4 3 1 1 2 2 2 1 1 1 2 2 4
1 5 7 6 8 7 5 6 9 11 11 12 13 10 10 10 10 9 7 6 6 6 4 5 5 4 3 3 3 2 3 4 3 1 2 2 2 1 2 3 3 5 2 3
Wind_Direction
229 132 220 231 211 212 247 282 286 279 279 269 253 251 252 236 209 211 184 168 164 174 174 169 169 170 174 173 179 192 180 169 163 158 151 141 132 119 103 91 97 104 108 109
353 241 232 238 255 259 268 277 280 289 285 279 256 248 246 190 170 162 155 154 155 155 152 155 152 160 166 179 182 184 182 176 170 162 146 133 125 108 98 88 78 83 92 97
210 240 230 236 254 258 263 247 257 268 300 318 254 264 250 80 84 81 89 107 125 143 150 154 156 159 152 166 176 182 176 168 159 145 129 121 108 101 97 89 79 66 78 85
243 248 240 232 240 231 252 246 245 258 300 304 28 246 269 114 82 74 74 76 82 90 105 118 125 129 136 155 153 160 159 150 147 146 147 147 145 136 118 110 95 76 71 75
242 233 221 231 238 224 235 248 242 249 237 316 353 132 284 73 95 90 77 71 68 68 70 72 79 94 90 92 104 118 114 120 124 132 137 133 123 113 111 105 97 85 72 72
248 254 219 223 238 230 235 284 353 48 73 345 267 145 304 5 126 112 87 71 62 60 58 58 56 58 57 61 71 79 92 97 104 108 112 122 123 122 120 111 103 90 79 70
280 273 248 228 237 264 165 92 30 7 27 248 262 124 60 52 81 99 94 78 66 60 56 54 52 52 53 58 65 73 83 82 88 95 95 101 108 112 112 111 107 103 93 83
251 279 257 215 196 200 184 143 158 182 205 284 352 107 94 89 87 87 85 81 72 64 60 57 55 55 56 59 63 70 75 76 78 84 87 88 92 97 98 98 102 99 97 92
239 264 279 238 201 166 161 176 173 146 176 287 273 120 122 110 101 97 91 84 75 68 65 63 60 59 58 60 62 69 76 76 74 79 82 81 85 91 95 95 94 94 94 95
208 285 298 276 64 107 150 147 93 116 160 242 264 168 177 155 131 112 101 93 85 77 72 70 68 66 64 65 66 68 73 76 75 76 82 87 84 87 91 94 92 91 89 89
57 57 341 33 48 281 60 52 82 130 155 163 237 288 323 150 132 119 108 101 92 84 79 77 75 73 72 71 70 71 74 77 77 78 82 84 84 84 84 85 86 88 86 83
16 93 27 25 22 61 83 71 97 133 249 166 152 31 49 108 115 118 113 105 96 90 85 83 81 80 77 77 77 77 77 79 80 82 83 82 83 82 82 79 77 77 76 73
41 70 44 2 1 17 37 16 28 129 113 96 121 106 87 103 105 108 110 106 101 97 92 87 84 84 84 81 81 81 80 80 81 83 83 81 79 79 78 75 72 71 73 73
85 66 102 127 261 357 23 27 33 69 90 87 103 126 126 118 114 110 107 104 100 97 98 96 90 83 83 83 84 86 84 84 84 83 82 80 77 77 77 74 71 72 77 80
75 72 63 79 70 74 54 39 46 57 72 107 105 107 121 122 121 120 118 117 113 107 102 98 95 92 88 86 86 88 87 84 85 84 82 80 77 74 72 70 70 71 77 84
64 83 67 64 84 78 54 35 45 57 65 99 99 82 102 110 112 119 121 119 114 110 106 101 99 97 96 95 94 91 90 90 90 91 91 88 85 82 79 79 78 76 77 81
54 87 78 70 123 88 45 16 47 70 57 92 97 115 130 115 109 118 122 120 117 114 110 105 101 98 96 93 95 93 91 91 93 96 97 94 94 93 94 95 86 80 78 84
111 86 94 89 72 76 129 31 86 86 69 86 104 114 109 102 89 79 95 113 115 114 112 108 105 100 96 94 92 94 92 92 94 95 96 97 100 98 94 88 85 79 76 83
108 108 84 88 91 108 128 294 152 110 81 103 122 124 118 112 91 69 72 95 104 105 106 104 102 99 94 90 91 94 92 95 96 97 96 98 104 102 94 90 88 64 54 24
52 68 85 86 97 116 303 315 149 114 102 156 143 146 149 137 116 124 106 102 100 99 99 99 96 93 90 86 89 92 93 93 97 101 101 103 109 112 111 116 121 325 356 313
31 36 58 78 93 93 306 323 110 136 180 168 149 151 154 121 127 126 116 106 106 106 105 100 94 91 91 92 90 90 91 99 109 108 105 104 113 128 136 119 25 352 356 0
105 84 60 83 99 248 310 39 112 157 132 120 117 119 114 112 113 116 115 114 113 111 106 103 100 94 90 94 94 94 105 121 116 113 103 100 136 173 150 143 347 10 31 32
100 156 145 135 176 220 46 103 126 125 118 119 119 124 126 123 124 122 121 121 119 118 114 108 107 98 89 97 105 114 141 137 122 117 112 121 148 184 168 157 72 49 63 69
78 108 95 88 108 114 100 102 107 114 118 124 129 130 129 126 127 125 125 123 120 116 115 112 108 106 108 121 124 142 150 135 124 128 195 239 263 286 346 48 128 128 115 99
178 101 97 106 139 111 100 119 120 112 116 122 125 124 128 128 128 129 128 127 126 123 120 120 123 129 139 138 136 152 143 129 130 191 268 274 258 238 178 83 94 143 166 162
316 143 143 181 187 153 159 144 127 125 130 134 129 119 122 126 127 127 127 128 129 129 127 124 130 138 145 140 146 167 163 150 150 225 280 272 256 225 165 122 74 52 92 121
Height
1483 1489 1494 1492 1490 1491 1491 1493 1496 1488 1478 1479 1479 1473 1466 1465 1469 1470 1472 1476 1480 1483 1486 1491 1495 1499 1504 1509 1513 1516 1518 1519 1521 1524 1528 1530 1533 1535 1538 1540 1541 1543 1545 1546
1488 1491 1486 1484 1484 1486 1489 1494 1492 1484 1474 1474 1474 1469 1463 1464 1467 1468 1470 1473 1476 1479 1484 1488 1492 1496 1498 1503 1506 1510 1514 1516 1518 1521 1524 1527 1530 1533 1535 1537 1539 1541 1542 1544
1491 1485 1480 1483 1485 1487 1487 1491 1489 1486 1476 1469 1472 1474 1469 1469 1470 1471 1473 1476 1478 1479 1481 1485 1488 1491 1494 1499 1502 1506 1510 1514 1517 1519 1522 1525 1527 1530 1532 1533 1536 1538 1540 1541
1485 1478 1479 1481 1482 1483 1489 1478 1478 1479 1484 1489 1479 1495 1478 1473 1476 1478 1479 1481 1482 1484 1484 1485 1486 1489 1492 1495 1499 1504 1508 1511 1514 1516 1518 1520 1523 1525 1528 1530 1532 1535 1537 1539
1481 1474 1477 1479 1475 1475 1477 1470 1472 1474 1480 1488 1484 1492 1488 1478 1482 1484 1486 1486 1486 1486 1487 1488 1488 1489 1492 1494 1498 1501 1505 1508 1511 1514 1516 1519 1521 1523 1526 1528 1530 1532 1534 1536
1474 1469 1469 1468 1465 1466 1466 1469 1472 1480 1489 1501 1487 1489 1494 1488 1485 1487 1490 1492 1492 1492 1492 1492 1492 1493 1494 1495 1497 1500 1503 1506 1508 1511 1515 1518 1519 1522 1524 1526 1529 1531 1533 1534
1475 1467 1462 1461 1465 1464 1466 1483 1499 1501 1510 1505 1484 1488 1498 1490 1488 1490 1494 1497 1498 1498 1497 1497 1496 1496 1497 1497 1498 1500 1503 1506 1508 1511 1514 1517 1519 1521 1523 1525 1528 1530 1531 1533
1483 1479 1461 1457 1461 1467 1468 1480 1501 1509 1509 1501 1486 1495 1497 1494 1495 1497 1499 1502 1503 1503 1503 1502 1502 1501 1501 1501 1501 1502 1504 1507 1509 1511 1514 1516 1519 1521 1523 1526 1528 1530 1531 1533
1479 1476 1456 1452 1452 1458 1466 1475 1478 1492 1493 1499 1496 1496 1497 1497 1499 1501 1503 1505 1507 1508 1508 1507 1507 1506 1506 1505 1505 1506 1507 1509 1511 1513 1515 1518 1520 1522 1524 1526 1529 1530 1532 1534
1469 1473 1460 1453 1452 1456 1460 1466 1482 1493 1503 1507 1495 1497 1499 1497 1500 1503 1506 1509 1511 1512 1512 1511 1511 1511 1510 1510 1510 1510 1511 1512 1514 1516 1518 1520 1522 1524 1526 1528 1529 1531 1533 1535
1466 1475 1469 1462 1468 1469 1468 1473 1480 1490 1494 1503 1506 1505 1490 1491 1498 1504 1509 1511 1513 1514 1515 1515 1515 1515 1515 1515 1515 1515 1516 1517 1518 1520 1521 1523 1525 1527 1529 1530 1532 1534 1536 1538
1468 1476 1481 1476 1471 1466 1472 1478 1484 1495 1496 1495 1503 1509 1496 1497 1501 1506 1510 1513 1515 1516 1518 1518 1519 1519 1519 1519 1519 1520 1521 1521 1522 1524 1525 1527 1529 1531 1532 1534 1536 1537 1538 1540
1471 1481 1492 1490 1486 1479 1480 1480 1481 1486 1495 1500 1506 1511 1504 1504 1507 1510 1512 1515 1517 1518 1519 1520 1521 1522 1522 1523 1524 1524 1525 1527 1527 1528 1530 1531 1533 1535 1536 1538 1539 1540 1540 1541
1471 1485 1493 1501 1497 1489 1489 1485 1484 1489 1501 1502 1502 1505 1507 1508 1511 1514 1516 1518 1520 1521 1522 1522 1523 1525 1525 1526 1527 1528 1530 1531 1532 1533 1534 1536 1538 1539 1540 1541 1541 1542 1542 1543
1475 1489 1488 1488 1486 1488 1491 1491 1490 1492 1495 1500 1503 1504 1509 1511 1514 1517 1518 1520 1521 1523 1525 1525 1526 1527 1529 1531 1532 1532 1533 1535 1536 1537 1538 1540 1541 1543 1544 1544 1544 1544 1544 1544
1481 1489 1490 1493 1490 1492 1497 1498 1496 1497 1497 1500 1504 1512 1513 1515 1517 1519 1521 1522 1523 1525 1527 1528 1529 1531 1532 1533 1535 1535 1536 1538 1539 1540 1541 1542 1543 1544 1546 1546 1546 1546 1545 1545
1485 1490 1496 1500 1494 1496 1510 1508 1504 1504 1503 1503 1509 1515 1515 1516 1519 1520 1522 1523 1526 1527 1530 1531 1532 1534 1535 1536 1537 1538 1539 1541 1542 1543 1543 1545 1546 1547 1547 1548 1547 1547 1547 1546
1485 1491 1499 1503 1503 1517 1517 1507 1506 1507 1509 1507 1511 1515 1517 1519 1522 1524 1525 1526 1528 1529 1531 1533 1535 1536 1538 1539 1540 1541 1542 1544 1545 1546 1546 1547 1548 1549 1549 1549 1548 1548 1548 1547
1482 1489 1499 1508 1512 1515 1511 1508 1508 1510 1515 1513 1515 1519 1521 1523 1525 1529 1530 1530 1531 1533 1535 1536 1538 1539 1541 1542 1543 1544 1545 1546 1548 1548 1549 1549 1550 1550 1550 1550 1549 1549 1548 1547
1486 1490 1501 1508 1514 1520 1515 1507 1506 1510 1519 1518 1517 1520 1522 1524 1528 1533 1533 1533 1535 1536 1538 1539 1541 1542 1543 1544 1545 1546 1547 1549 1550 1550 1551 1551 1552 1552 1551 1551 1550 1550 1549 1547
1498 1501 1507 1512 1517 1516 1510 1506 1506 1516 1520 1518 1518 1520 1522 1524 1527 1532 1534 1536 1537 1539 1541 1542 1543 1544 1546 1547 1548 1549 1550 1551 1552 1552 1553 1553 1553 1553 1552 1552 1551 1550 1549 1547
1504 1509 1511 1516 1522 1523 1509 1507 1512 1516 1515 1517 1519 1521 1523 1525 1529 1532 1535 1538 1540 1542 1543 1545 1545 1547 1548 1549 1550 1551 1552 1553 1553 1554 1554 1554 1554 1554 1553 1552 1551 1550 1549 1547
1502 1505 1510 1515 1520 1514 1510 1510 1512 1514 1516 1519 1521 1523 1525 1528 1531 1535 1537 1540 1542 1544 1546 1547 1548 1549 1551 1552 1553 1553 1554 1554 1555 1555 1555 1555 1554 1554 1553 1553 1551 1550 1548 1546
1500 1500 1507 1513 1515 1514 1514 1514 1515 1517 1518 1520 1522 1525 1527 1530 1534 1537 1539 1542 1544 1546 1548 1550 1551 1552 1553 1554 1554 1555 1555 1555 1556 1556 1555 1555 1554 1554 1553 1552 1551 1550 1548 1546
1499 1501 1508 1514 1515 1515 1516 1516 1517 1519 1521 1523 1525 1527 1530 1532 1536 1539 1542 1544 1547 1549 1550 1552 1553 1554 1555 1556 1556 1556 1556 1556 1556 1556 1556 1555 1554 1553 1553 1552 1550 1549 1547 1545
1499 1501 1507 1511 1510 1512 1516 1517 1518 1520 1522 1524 1526 1530 1533 1535 1538 1541 1544 1546 1548 1551 1552 1554 1555 1556 1557 1557 1557 1557 1557 1557 1557 1556 1556 1555 1554 1553 1552 1551 1549 1547 1546 1544